| time (UTC) | temp F | wind direction | speed knots | gust knots | rain 1hr in | rain 24hr in | rain mn in | humidity % | barometer mb |
| 20260905190502 | 95 | 78 | 0.9 | 3.5 | 0.00 | 0.00 | 0.00 | 53 | 1012.4 |
| 20260905190000 | 95 | 234 | 0.9 | 3.5 | 0.00 | 0.00 | 0.00 | 54 | 1012.4 |
| 20260905185004 | 95 | 298 | 0.9 | 1.7 | 0.00 | 0.00 | 0.00 | 55 | 1012.6 |
| 20260905184000 | 95 | 61 | 0.9 | 1.7 | 0.00 | 0.00 | 0.00 | 53 | 1012.8 |
| 20260905183002 | 95 | 21 | 0.9 | 1.7 | 0.00 | 0.00 | 0.00 | 54 | 1013.1 |
| 20260905182502 | 95 | 6 | 0.9 | 1.7 | 0.00 | 0.00 | 0.00 | 54 | 1013.1 |
| 20260905182002 | 95 | 18 | 0.9 | 1.7 | 0.00 | 0.00 | 0.00 | 53 | 1013.1 |
| 20260905181002 | 94 | 140 | 0.0 | 1.7 | 0.00 | 0.00 | 0.00 | 54 | 1013.0 |
| 20260905180502 | 94 | 75 | 0.0 | 1.7 | 0.00 | 0.00 | 0.00 | 56 | 1013.0 |
| 20260905175501 | 94 | 228 | 0.9 | 2.6 | 0.00 | 0.00 | 0.00 | 53 | 1013.2 |
| 20260905175002 | 93 | 106 | 0.9 | 2.6 | 0.00 | 0.00 | 0.00 | 54 | 1013.3 |
| 20260905174500 | 93 | 28 | 0.9 | 1.7 | 0.00 | 0.00 | 0.00 | 55 | 1013.3 |
| 20260905174000 | 93 | 162 | 0.9 | 2.6 | 0.00 | 0.00 | 0.00 | 56 | 1013.4 |
| 20260905173002 | 92 | 131 | 0.9 | 1.7 | 0.00 | 0.00 | 0.00 | 54 | 1013.5 |
| 20260905172501 | 92 | 20 | 0.9 | 1.7 | 0.00 | 0.00 | 0.00 | 55 | 1013.5 |
| 20260905172001 | 92 | 211 | 0.9 | 2.6 | 0.00 | 0.00 | 0.00 | 59 | 1013.6 |
| 20260905171503 | 92 | 123 | 0.0 | 2.6 | 0.00 | 0.00 | 0.00 | 55 | 1013.8 |
| 20260905171002 | 92 | 46 | 0.9 | 3.5 | 0.00 | 0.00 | 0.00 | 57 | 1013.8 |
| 20260905170502 | 91 | 137 | 0.9 | 3.5 | 0.00 | 0.00 | 0.00 | 57 | 1013.9 |
| 20260905170005 | 91 | 81 | 0.0 | 0.9 | 0.00 | 0.00 | 0.00 | 57 | 1014.1 |
| 20260905165502 | 91 | 162 | 0.0 | 2.6 | 0.00 | 0.00 | 0.00 | 58 | 1014.2 |
| 20260905165003 | 90 | 172 | 0.9 | 2.6 | 0.00 | 0.00 | 0.00 | 59 | 1014.2 |
| 20260905164502 | 89 | 103 | 0.9 | 2.6 | 0.00 | 0.00 | 0.00 | 57 | 1014.3 |
| 20260905164003 | 89 | 91 | 0.9 | 2.6 | 0.00 | 0.00 | 0.00 | 59 | 1014.3 |
| 20260905163503 | 88 | 76 | 0.9 | 2.6 | 0.00 | 0.00 | 0.00 | 59 | 1014.2 |
| 20260905163003 | 88 | 177 | 0.9 | 3.5 | 0.00 | 0.00 | 0.00 | 59 | 1014.1 |
| 20260905162502 | 88 | 335 | 0.9 | 3.5 | 0.00 | 0.00 | 0.00 | 62 | 1014.1 |
| 20260905162003 | 87 | 63 | 0.9 | 3.5 | 0.00 | 0.00 | 0.00 | 62 | 1014.1 |
| 20260905161503 | 87 | 47 | 0.9 | 2.6 | 0.00 | 0.00 | 0.00 | 63 | 1014.2 |
| 20260905160505 | 86 | 353 | 0.0 | 2.6 | 0.00 | 0.00 | 0.00 | 62 | 1014.2 |
| 20260905160004 | 85 | 106 | 0.0 | 1.7 | 0.00 | 0.00 | 0.00 | 64 | 1014.3 |
| 20260905155502 | 85 | 212 | 0.0 | 1.7 | 0.00 | 0.00 | 0.00 | 66 | 1014.5 |
| 20260905153503 | 85 | 43 | 0.0 | 0.9 | 0.00 | 0.00 | 0.00 | 67 | 1014.5 |
| 20260905153003 | 85 | 43 | 0.0 | 0.9 | 0.00 | 0.00 | 0.00 | 66 | 1014.5 |
| 20260905152503 | 85 | 43 | 0.0 | 0.9 | 0.00 | 0.00 | 0.00 | 64 | 1014.5 |
| 20260905152002 | 85 | 43 | 0.9 | 2.6 | 0.00 | 0.00 | 0.00 | 64 | 1014.4 |
| 20260905151505 | 85 | 42 | 0.9 | 2.6 | 0.00 | 0.00 | 0.00 | 62 | 1014.6 |
| 20260905151002 | 85 | 309 | 0.9 | 2.6 | 0.00 | 0.00 | 0.00 | 64 | 1014.6 |
| 20260905150502 | 84 | 98 | 0.9 | 2.6 | 0.00 | 0.00 | 0.00 | 64 | 1014.6 |
| 20260905150003 | 84 | 68 | 0.0 | 2.6 | 0.00 | 0.00 | 0.00 | 65 | 1014.5 |
| 20260905145503 | 83 | 348 | 0.0 | 2.6 | 0.00 | 0.00 | 0.00 | 68 | 1014.5 |
| 20260905145002 | 83 | 56 | 0.0 | 2.6 | 0.00 | 0.00 | 0.00 | 64 | 1014.5 |
| 20260905144503 | 83 | 48 | 0.0 | 2.6 | 0.00 | 0.00 | 0.00 | 66 | 1014.5 |
| 20260905144003 | 82 | 137 | 0.0 | 2.6 | 0.00 | 0.00 | 0.00 | 66 | 1014.6 |
| 20260905143502 | 81 | 198 | 0.0 | 2.6 | 0.00 | 0.00 | 0.00 | 68 | 1014.8 |
| 20260905143003 | 81 | 254 | 0.9 | 2.6 | 0.00 | 0.00 | 0.00 | 70 | 1015.0 |
| 20260905142502 | 80 | 5 | 0.0 | 2.6 | 0.00 | 0.00 | 0.00 | 69 | 1014.9 |
| 20260905142003 | 80 | 49 | 0.0 | 2.6 | 0.00 | 0.00 | 0.00 | 70 | 1014.9 |
| 20260905140502 | 78 | 122 | 0.0 | 1.7 | 0.00 | 0.00 | 0.00 | 76 | 1015.1 |
| 20260905140000 | 78 | 122 | 0.0 | 1.7 | 0.00 | 0.00 | 0.00 | 75 | 1015.1 |
| 20260905135502 | 78 | 139 | 0.0 | 1.7 | 0.00 | 0.00 | 0.00 | 77 | 1015.2 |
| 20260905135001 | 78 | 108 | 0.0 | 1.7 | 0.00 | 0.00 | 0.00 | 78 | 1015.3 |
| 20260905134000 | 77 | 116 | 0.0 | 1.7 | 0.00 | 0.00 | 0.00 | 77 | 1015.1 |
| 20260905133001 | 76 | 75 | 0.0 | 1.7 | 0.00 | 0.00 | 0.00 | 79 | 1015.3 |
| 20260905132502 | 76 | 124 | 0.0 | 1.7 | 0.00 | 0.00 | 0.00 | 80 | 1015.4 |
| 20260905131002 | 76 | 98 | 0.0 | 2.6 | 0.00 | 0.00 | 0.00 | 78 | 1015.6 |
| 20260905130501 | 75 | 108 | 0.0 | 1.7 | 0.00 | 0.00 | 0.00 | 79 | 1015.6 |
| 20260905130002 | 75 | 96 | 0.0 | 0.9 | 0.00 | 0.00 | 0.00 | 79 | 1015.4 |
| 20260905125504 | 75 | 84 | 0.0 | 1.7 | 0.00 | 0.00 | 0.00 | 80 | 1015.2 |
| 20260905125002 | 75 | 120 | 0.0 | 1.7 | 0.00 | 0.00 | 0.00 | 80 | 1015.2 |
| 20260905124503 | 75 | 77 | 0.0 | 0.9 | 0.00 | 0.00 | 0.00 | 82 | 1015.4 |
| 20260905123005 | 0 | 0.0 | 0.0 | 0.00 | 0.00 | 0.00 | 1015.3 | ||
| 20260905122502 | 0 | 0.0 | 0.0 | 0.00 | 0.00 | 0.00 | 1015.4 | ||
| 20260905122003 | 0 | 0.0 | 0.0 | 0.00 | 0.00 | 0.00 | 1015.4 | ||
| 20260905121007 | 0 | 0.0 | 0.0 | 0.00 | 0.00 | 0.00 | 1015.4 | ||
| 20260905120502 | 0 | 0.0 | 0.0 | 0.00 | 0.00 | 0.00 | 1015.3 | ||
| 20260905120005 | 0 | 0.0 | 0.0 | 0.00 | 0.00 | 0.00 | 1015.4 | ||
| 20260905115503 | 0 | 0.0 | 0.0 | 0.00 | 0.00 | 0.00 | 1015.4 | ||
| 20260905115002 | 0 | 0.0 | 0.0 | 0.00 | 0.00 | 0.00 | 1015.3 | ||
| 20260905114003 | 0 | 0.0 | 0.0 | 0.00 | 0.00 | 0.00 | 1015.2 | ||
| 20260905113503 | 0 | 0.0 | 0.0 | 0.00 | 0.00 | 0.00 | 1015.1 | ||
| 20260905112502 | 0 | 0.0 | 0.0 | 0.00 | 0.00 | 0.00 | 1014.5 | ||
| 20260905112002 | 0 | 0.0 | 0.0 | 0.00 | 0.00 | 0.00 | 1014.4 | ||
| 20260905111503 | 0 | 0.0 | 0.0 | 0.00 | 0.00 | 0.00 | 1013.7 | ||
| 20260905111002 | 0 | 0.0 | 0.0 | 0.00 | 0.00 | 0.00 | 1013.5 | ||
| 20260905105501 | 0 | 0.0 | 0.0 | 0.00 | 0.00 | 0.00 | 1013.1 | ||
| 20260905105004 | 0 | 0.0 | 0.0 | 0.00 | 0.00 | 0.00 | 1013.0 | ||
| 20260905104502 | 0 | 0.0 | 0.0 | 0.00 | 0.00 | 0.00 | 1013.0 | ||
| 20260905104004 | 0 | 0.0 | 0.0 | 0.00 | 0.00 | 0.00 | 1013.0 | ||
| 20260905103500 | 0 | 0.0 | 0.0 | 0.00 | 0.00 | 0.00 | 1013.0 | ||
| 20260905103002 | 0 | 0.0 | 0.0 | 0.00 | 0.00 | 0.00 | 1013.1 | ||
| 20260905102502 | 0 | 0.0 | 0.0 | 0.00 | 0.00 | 0.00 | 1013.1 | ||
| 20260905102001 | 0 | 0.0 | 0.0 | 0.00 | 0.00 | 0.00 | 1013.1 | ||
| 20260905101503 | 0 | 0.0 | 0.0 | 0.00 | 0.00 | 0.00 | 1013.2 | ||
| 20260905101001 | 0 | 0.0 | 0.0 | 0.00 | 0.00 | 0.00 | 1013.2 | ||
| 20260905100500 | 0 | 0.0 | 0.0 | 0.00 | 0.00 | 0.00 | 1013.1 | ||
| 20260905095002 | 0 | 0.0 | 0.0 | 0.00 | 0.00 | 0.00 | 1012.9 | ||
| 20260905094003 | 0 | 0.0 | 0.0 | 0.00 | 0.00 | 0.00 | 1012.9 | ||
| 20260905093502 | 0 | 0.0 | 0.0 | 0.00 | 0.00 | 0.00 | 1013.0 | ||
| 20260905093003 | 0 | 0.0 | 0.0 | 0.00 | 0.00 | 0.00 | 1012.9 | ||
| 20260905092503 | 0 | 225 | 0.0 | 0.0 | 0.00 | 0.00 | 0.00 | 95 | 1012.9 |
| 20260905092004 | 0 | 225 | 0.0 | 0.0 | 0.00 | 0.00 | 0.00 | 95 | 1012.8 |
| 20260905091503 | 76 | 222 | 0.0 | 0.0 | 0.00 | 0.00 | 0.00 | 95 | 1012.9 |
| 20260905091002 | 76 | 222 | 0.0 | 0.0 | 0.00 | 0.00 | 0.00 | 95 | 1012.9 |
| 20260905090504 | 76 | 222 | 0.0 | 0.0 | 0.00 | 0.00 | 0.00 | 95 | 1012.8 |
| 20260905090002 | 76 | 222 | 0.0 | 0.0 | 0.00 | 0.00 | 0.00 | 95 | 1012.7 |
| 20260905085502 | 76 | 222 | 0.0 | 0.0 | 0.00 | 0.00 | 0.00 | 94 | 1012.8 |
| 20260905085003 | 76 | 222 | 0.0 | 0.0 | 0.00 | 0.00 | 0.00 | 94 | 1012.7 |
| 20260905084503 | 76 | 222 | 0.0 | 0.0 | 0.00 | 0.00 | 0.00 | 94 | 1012.6 |
| 20260905083504 | 76 | 222 | 0.0 | 0.9 | 0.00 | 0.00 | 0.00 | 94 | 1012.6 |
| 20260905083003 | 76 | 222 | 0.0 | 0.9 | 0.00 | 0.00 | 0.00 | 94 | 1012.6 |
| 20260905082002 | 77 | 222 | 0.0 | 0.0 | 0.00 | 0.00 | 0.00 | 94 | 1012.6 |
| 20260905081502 | 77 | 222 | 0.0 | 0.9 | 0.00 | 0.00 | 0.00 | 94 | 1012.5 |
| 20260905080502 | 77 | 222 | 0.0 | 0.0 | 0.00 | 0.00 | 0.00 | 94 | 1012.4 |
| 20260905080005 | 77 | 222 | 0.0 | 0.9 | 0.00 | 0.00 | 0.00 | 94 | 1012.3 |
| 20260905075505 | 77 | 222 | 0.0 | 0.9 | 0.00 | 0.00 | 0.00 | 94 | 1012.4 |
| 20260905075002 | 77 | 222 | 0.0 | 0.9 | 0.00 | 0.00 | 0.00 | 94 | 1012.2 |
| 20260905074502 | 77 | 222 | 0.0 | 0.9 | 0.00 | 0.00 | 0.00 | 94 | 1012.3 |
| 20260905074003 | 77 | 222 | 0.0 | 0.9 | 0.00 | 0.00 | 0.00 | 94 | 1012.2 |
| 20260905073002 | 77 | 91 | 0.0 | 0.9 | 0.00 | 0.00 | 0.00 | 95 | 1012.4 |
| 20260905072502 | 77 | 231 | 0.0 | 0.9 | 0.00 | 0.00 | 0.00 | 95 | 1012.4 |
| 20260905072002 | 77 | 233 | 0.0 | 0.9 | 0.00 | 0.00 | 0.00 | 95 | 1012.4 |
| 20260905071502 | 77 | 208 | 0.0 | 0.9 | 0.00 | 0.00 | 0.00 | 95 | 1012.4 |
| 20260905070502 | 77 | 224 | 0.0 | 0.9 | 0.00 | 0.00 | 0.00 | 95 | 1012.6 |
| 20260905070005 | 77 | 158 | 0.0 | 0.0 | 0.00 | 0.00 | 0.00 | 95 | 1012.7 |
| 20260905065502 | 77 | 158 | 0.0 | 0.0 | 0.00 | 0.00 | 0.00 | 95 | 1012.7 |
| 20260905064503 | 77 | 156 | 0.0 | 0.0 | 0.00 | 0.00 | 0.00 | 95 | 1012.9 |
| 20260905064003 | 77 | 156 | 0.0 | 0.0 | 0.00 | 0.00 | 0.00 | 95 | 1012.9 |
| 20260905063503 | 77 | 156 | 0.0 | 0.0 | 0.00 | 0.00 | 0.00 | 95 | 1013.0 |
| 20260905063003 | 77 | 156 | 0.0 | 0.0 | 0.00 | 0.00 | 0.00 | 94 | 1013.1 |
| 20260905062502 | 77 | 155 | 0.0 | 0.0 | 0.00 | 0.00 | 0.00 | 94 | 1013.1 |
| 20260905062003 | 77 | 155 | 0.0 | 0.0 | 0.00 | 0.00 | 0.00 | 94 | 1013.2 |
| 20260905061502 | 77 | 156 | 0.0 | 0.0 | 0.00 | 0.00 | 0.00 | 94 | 1013.2 |
| 20260905061005 | 77 | 156 | 0.0 | 0.0 | 0.00 | 0.00 | 0.00 | 94 | 1013.3 |
| 20260905060502 | 78 | 158 | 0.0 | 0.0 | 0.00 | 0.00 | 0.00 | 94 | 1013.3 |
| 20260905060004 | 78 | 158 | 0.0 | 0.0 | 0.00 | 0.00 | 0.00 | 94 | 1013.3 |
| 20260905055503 | 78 | 158 | 0.0 | 0.9 | 0.00 | 0.00 | 0.00 | 94 | 1013.3 |
| 20260905055002 | 78 | 133 | 0.0 | 0.9 | 0.00 | 0.00 | 0.00 | 94 | 1013.3 |
| 20260905054503 | 78 | 133 | 0.0 | 0.9 | 0.00 | 0.00 | 0.00 | 94 | 1013.3 |
| 20260905053504 | 77 | 131 | 0.0 | 0.0 | 0.00 | 0.00 | 0.00 | 94 | 1013.5 |
| 20260905053003 | 77 | 131 | 0.0 | 0.0 | 0.00 | 0.00 | 0.00 | 94 | 1013.6 |
| 20260905052502 | 78 | 131 | 0.0 | 0.0 | 0.00 | 0.00 | 0.00 | 94 | 1013.6 |
| 20260905052002 | 78 | 131 | 0.0 | 0.0 | 0.00 | 0.00 | 0.00 | 94 | 1013.7 |
| 20260905051002 | 78 | 131 | 0.0 | 0.0 | 0.00 | 0.00 | 0.00 | 94 | 1013.8 |
| 20260905050504 | 78 | 131 | 0.0 | 0.0 | 0.00 | 0.00 | 0.00 | 94 | 1013.9 |
| 20260905050004 | 78 | 131 | 0.0 | 0.0 | 0.00 | 0.00 | 0.00 | 93 | 1013.9 |
| 20260905045505 | 78 | 131 | 0.0 | 0.0 | 0.00 | 0.00 | 0.00 | 94 | 1013.9 |
| 20260905045003 | 78 | 131 | 0.0 | 0.0 | 0.00 | 0.00 | 0.00 | 93 | 1013.9 |
| 20260905044503 | 78 | 131 | 0.0 | 0.0 | 0.00 | 0.00 | 0.00 | 93 | 1014.0 |
| 20260905043502 | 78 | 131 | 0.0 | 0.0 | 0.00 | 0.00 | 0.00 | 93 | 1014.0 |
| 20260905043003 | 78 | 131 | 0.0 | 0.0 | 0.00 | 0.00 | 0.00 | 93 | 1014.1 |
| 20260905042006 | 78 | 131 | 0.0 | 0.0 | 0.00 | 0.00 | 0.00 | 92 | 1014.1 |
| 20260905041506 | 78 | 131 | 0.0 | 0.0 | 0.00 | 0.00 | 0.00 | 92 | 1014.1 |
| 20260905041005 | 78 | 131 | 0.0 | 0.0 | 0.00 | 0.00 | 0.00 | 91 | 1014.0 |
| 20260905040003 | 78 | 131 | 0.0 | 0.0 | 0.00 | 0.00 | 0.00 | 91 | 1014.1 |
| 20260905035003 | 78 | 131 | 0.0 | 0.0 | 0.00 | 0.00 | 0.00 | 91 | 1014.0 |
| 20260905034503 | 79 | 131 | 0.0 | 0.0 | 0.00 | 0.00 | 0.00 | 90 | 1014.0 |
| 20260905034003 | 79 | 131 | 0.0 | 0.0 | 0.00 | 0.00 | 0.00 | 90 | 1014.0 |
| 20260905033003 | 79 | 131 | 0.0 | 0.0 | 0.00 | 0.00 | 0.00 | 89 | 1013.9 |
| 20260905032503 | 79 | 131 | 0.0 | 0.0 | 0.00 | 0.00 | 0.00 | 89 | 1013.9 |
| 20260905032003 | 80 | 131 | 0.0 | 0.0 | 0.00 | 0.00 | 0.00 | 88 | 1013.9 |
| 20260905031503 | 80 | 131 | 0.0 | 0.0 | 0.00 | 0.00 | 0.00 | 88 | 1013.9 |
| 20260905031003 | 80 | 131 | 0.0 | 0.0 | 0.00 | 0.00 | 0.00 | 88 | 1013.9 |
| 20260905030502 | 80 | 131 | 0.0 | 0.0 | 0.00 | 0.00 | 0.00 | 87 | 1013.9 |
| 20260905025502 | 80 | 131 | 0.0 | 0.0 | 0.00 | 0.00 | 0.00 | 87 | 1013.8 |
| 20260905025005 | 80 | 131 | 0.0 | 0.0 | 0.00 | 0.00 | 0.00 | 87 | 1013.9 |
| 20260905024503 | 80 | 131 | 0.0 | 0.0 | 0.00 | 0.00 | 0.00 | 86 | 1013.9 |
| 20260905024003 | 80 | 131 | 0.0 | 0.0 | 0.00 | 0.00 | 0.00 | 86 | 1014.0 |
| 20260905023502 | 80 | 131 | 0.0 | 0.0 | 0.00 | 0.00 | 0.00 | 86 | 1014.0 |
| 20260905022003 | 80 | 131 | 0.0 | 0.0 | 0.00 | 0.00 | 0.00 | 84 | 1014.0 |
| 20260905021502 | 80 | 131 | 0.0 | 0.0 | 0.00 | 0.00 | 0.00 | 84 | 1014.0 |
| 20260905021002 | 81 | 247 | 0.0 | 0.0 | 0.00 | 0.00 | 0.00 | 83 | 1013.9 |
| 20260905020503 | 81 | 248 | 0.0 | 0.0 | 0.00 | 0.00 | 0.00 | 83 | 1013.8 |
| 20260905015003 | 81 | 247 | 0.0 | 0.0 | 0.00 | 0.00 | 0.00 | 83 | 1013.7 |
| 20260905014502 | 81 | 247 | 0.0 | 0.0 | 0.00 | 0.00 | 0.00 | 83 | 1013.7 |
| 20260905014002 | 81 | 248 | 0.0 | 0.0 | 0.00 | 0.00 | 0.00 | 82 | 1013.6 |
| 20260905013503 | 81 | 248 | 0.0 | 0.0 | 0.00 | 0.00 | 0.00 | 82 | 1013.6 |
| 20260905013003 | 82 | 247 | 0.0 | 0.0 | 0.00 | 0.00 | 0.00 | 83 | 1013.5 |
| 20260905012503 | 82 | 248 | 0.0 | 0.0 | 0.00 | 0.00 | 0.00 | 83 | 1013.5 |
| 20260905012003 | 83 | 248 | 0.0 | 0.0 | 0.00 | 0.00 | 0.00 | 81 | 1013.3 |
| 20260905011003 | 83 | 247 | 0.0 | 0.0 | 0.00 | 0.00 | 0.00 | 80 | 1013.3 |
| 20260905010503 | 83 | 247 | 0.0 | 0.0 | 0.00 | 0.00 | 0.00 | 80 | 1013.3 |
| 20260905010006 | 83 | 247 | 0.0 | 0.0 | 0.00 | 0.00 | 0.00 | 80 | 1013.3 |
| 20260905005503 | 83 | 247 | 0.0 | 0.0 | 0.00 | 0.00 | 0.00 | 80 | 1013.3 |
| 20260905004502 | 84 | 247 | 0.0 | 0.0 | 0.00 | 0.00 | 0.00 | 79 | 1013.1 |
| 20260905004003 | 84 | 248 | 0.0 | 0.0 | 0.00 | 0.00 | 0.00 | 78 | 1013.1 |
| 20260905003502 | 84 | 248 | 0.0 | 0.0 | 0.00 | 0.00 | 0.00 | 78 | 1013.1 |
| 20260905003004 | 84 | 247 | 0.0 | 0.0 | 0.00 | 0.00 | 0.00 | 77 | 1013.1 |
| 20260905002503 | 85 | 248 | 0.0 | 0.0 | 0.00 | 0.00 | 0.00 | 77 | 1013.1 |
| 20260905002004 | 85 | 247 | 0.0 | 0.0 | 0.00 | 0.00 | 0.00 | 76 | 1013.1 |
| 20260905001502 | 85 | 247 | 0.0 | 0.0 | 0.00 | 0.00 | 0.00 | 76 | 1013.0 |
| 20260905001005 | 85 | 248 | 0.0 | 0.0 | 0.00 | 0.00 | 0.00 | 76 | 1013.0 |
| 20260905000502 | 86 | 248 | 0.0 | 0.0 | 0.00 | 0.00 | 0.00 | 76 | 1013.0 |
| 20260905000002 | 86 | 248 | 0.0 | 0.0 | 0.00 | 0.00 | 0.00 | 76 | 1013.0 |
| 20260904235504 | 86 | 248 | 0.0 | 0.0 | 0.00 | 0.00 | 0.00 | 76 | 1013.0 |
| 20260904235001 | 86 | 248 | 0.0 | 0.0 | 0.00 | 0.00 | 0.00 | 76 | 1013.0 |
| 20260904234502 | 87 | 247 | 0.0 | 0.0 | 0.00 | 0.00 | 0.00 | 75 | 1012.9 |
| 20260904234000 | 87 | 247 | 0.0 | 0.0 | 0.00 | 0.00 | 0.00 | 75 | 1012.9 |
| 20260904232501 | 88 | 247 | 0.0 | 0.0 | 0.00 | 0.00 | 0.00 | 74 | 1012.9 |
| 20260904232000 | 88 | 247 | 0.0 | 0.0 | 0.00 | 0.00 | 0.00 | 74 | 1012.8 |
| 20260904231501 | 89 | 247 | 0.0 | 0.0 | 0.00 | 0.00 | 0.00 | 73 | 1012.8 |
| 20260904230500 | 89 | 247 | 0.0 | 0.0 | 0.00 | 0.00 | 0.00 | 72 | 1012.8 |
| 20260904230005 | 89 | 248 | 0.0 | 0.0 | 0.00 | 0.00 | 0.00 | 71 | 1013.0 |
| 20260904225501 | 90 | 247 | 0.0 | 0.0 | 0.00 | 0.00 | 0.00 | 70 | 1013.0 |
| 20260904225002 | 90 | 248 | 0.0 | 0.0 | 0.00 | 0.00 | 0.00 | 69 | 1012.9 |
| 20260904224502 | 90 | 247 | 0.0 | 0.0 | 0.00 | 0.00 | 0.00 | 69 | 1013.0 |
| 20260904224000 | 91 | 247 | 0.0 | 0.0 | 0.00 | 0.00 | 0.00 | 68 | 1013.0 |
| 20260904223001 | 91 | 247 | 0.0 | 0.0 | 0.00 | 0.00 | 0.00 | 68 | 1013.0 |
| 20260904222500 | 92 | 247 | 0.0 | 0.9 | 0.00 | 0.00 | 0.00 | 66 | 1013.1 |
| 20260904222002 | 92 | 247 | 0.0 | 0.0 | 0.00 | 0.00 | 0.00 | 65 | 1013.1 |
| 20260904221502 | 92 | 247 | 0.0 | 0.0 | 0.00 | 0.00 | 0.00 | 66 | 1013.1 |
| 20260904221001 | 93 | 247 | 0.0 | 0.9 | 0.00 | 0.00 | 0.00 | 64 | 1013.1 |
| 20260904220502 | 93 | 247 | 0.0 | 0.9 | 0.00 | 0.00 | 0.00 | 63 | 1013.1 |
| 20260904220003 | 94 | 223 | 0.0 | 0.9 | 0.00 | 0.00 | 0.00 | 62 | 1013.1 |
| 20260904215002 | 95 | 120 | 0.0 | 0.9 | 0.00 | 0.00 | 0.00 | 62 | 1013.1 |
| 20260904214003 | 97 | 99 | 0.0 | 1.7 | 0.00 | 0.00 | 0.00 | 57 | 1013.2 |
| 20260904213502 | 98 | 112 | 0.0 | 1.7 | 0.00 | 0.00 | 0.00 | 56 | 1013.2 |
| 20260904213005 | 99 | 17 | 0.0 | 0.9 | 0.00 | 0.00 | 0.00 | 53 | 1013.2 |
| 20260904212502 | 99 | 232 | 0.0 | 0.9 | 0.00 | 0.00 | 0.00 | 57 | 1013.2 |
| 20260904212003 | 99 | 195 | 0.0 | 0.9 | 0.00 | 0.00 | 0.00 | 55 | 1013.3 |
| 20260904211503 | 99 | 168 | 0.0 | 0.9 | 0.00 | 0.00 | 0.00 | 56 | 1013.4 |
| 20260904211002 | 98 | 169 | 0.0 | 1.7 | 0.00 | 0.00 | 0.00 | 55 | 1013.4 |
| 20260904210502 | 98 | 309 | 0.9 | 1.7 | 0.00 | 0.00 | 0.00 | 58 | 1013.5 |
| 20260904210001 | 98 | 338 | 0.0 | 2.6 | 0.00 | 0.00 | 0.00 | 58 | 1013.6 |
| 20260904205502 | 99 | 120 | 0.0 | 1.7 | 0.00 | 0.00 | 0.00 | 57 | 1013.7 |
| 20260904205002 | 98 | 123 | 0.0 | 1.7 | 0.00 | 0.00 | 0.00 | 56 | 1013.6 |
| 20260904204502 | 98 | 123 | 0.9 | 2.6 | 0.00 | 0.00 | 0.00 | 58 | 1013.8 |
| 20260904204001 | 98 | 285 | 0.9 | 2.6 | 0.00 | 0.00 | 0.00 | 57 | 1013.8 |
| 20260904203503 | 99 | 300 | 0.9 | 2.6 | 0.00 | 0.00 | 0.00 | 57 | 1013.8 |
| 20260904202500 | 99 | 337 | 0.9 | 0.9 | 0.00 | 0.00 | 0.00 | 54 | 1014.0 |
| 20260904202000 | 99 | 67 | 0.0 | 0.9 | 0.00 | 0.00 | 0.00 | 55 | 1014.0 |
| 20260904200501 | 98 | 89 | 0.9 | 3.5 | 0.00 | 0.00 | 0.00 | 56 | 1014.0 |
| 20260904195505 | 97 | 66 | 0.9 | 1.7 | 0.00 | 0.00 | 0.00 | 56 | 1014.2 |
| 20260904194002 | 98 | 309 | 0.9 | 1.7 | 0.00 | 0.00 | 0.00 | 55 | 1014.3 |
| 20260904193503 | 97 | 232 | 0.9 | 2.6 | 0.00 | 0.00 | 0.00 | 55 | 1014.4 |
| 20260904193003 | 98 | 311 | 0.9 | 2.6 | 0.00 | 0.00 | 0.00 | 55 | 1014.5 |
| 20260904192502 | 98 | 49 | 0.9 | 2.6 | 0.00 | 0.00 | 0.00 | 57 | 1014.6 |
| 20260904192002 | 97 | 308 | 0.9 | 2.6 | 0.00 | 0.00 | 0.00 | 55 | 1014.7 |
| 20260904191503 | 97 | 303 | 0.9 | 2.6 | 0.00 | 0.00 | 0.00 | 57 | 1014.7 |